Theta_e
322 322 324 321 322 328 329 329 330 328 328 330 331 331 330 331 330 329 328 328 328 329 331 332 332 333 333 336 336 335 339 339
321 322 323 325 320 325 325 333 332 330 331 330 331 330 329 329 329 329 329 328 327 328 328 330 332 332 333 333 336 332 338 338
322 326 326 325 320 320 323 330 331 330 330 329 328 328 328 328 328 329 329 328 328 327 327 327 330 332 331 332 332 332 333 338
321 320 321 322 323 320 320 324 326 324 321 322 324 326 327 327 328 328 328 328 328 327 328 327 327 332 329 330 333 336 331 339
319 319 320 320 319 322 323 323 319 319 320 322 324 325 326 327 325 327 328 326 327 328 327 327 326 330 331 329 331 333 331 339
319 319 320 320 322 324 323 323 323 324 323 323 323 323 323 324 325 327 327 327 327 326 327 327 327 331 332 329 331 329 333 340
320 319 318 323 323 323 323 324 325 325 323 322 322 322 323 324 325 324 325 325 325 326 327 327 328 331 331 331 331 330 332 339
321 318 318 323 324 324 324 325 324 325 324 323 323 324 323 323 324 324 323 323 324 325 326 326 324 327 330 331 331 328 327 340
319 319 323 324 325 325 325 325 325 325 324 324 324 323 324 324 324 324 324 322 324 325 326 327 325 329 331 332 331 329 329 338
319 325 326 325 326 326 326 325 326 326 325 324 324 323 324 324 325 323 323 323 324 325 326 328 327 329 331 332 331 330 331 338
320 327 325 326 328 327 327 327 327 327 326 324 323 323 325 325 324 324 322 323 324 325 326 327 327 328 331 331 330 330 333 338
322 326 325 326 327 328 328 328 327 327 327 326 325 325 325 325 325 325 324 322 323 325 326 327 328 330 330 330 330 330 334 338
325 325 325 326 327 328 328 328 328 328 328 327 326 326 326 326 326 326 326 326 326 327 327 327 328 328 329 330 330 329 335 338
323 324 324 326 327 327 327 327 328 328 328 328 326 325 326 327 327 327 327 327 327 327 328 328 327 327 329 330 330 329 337 337
323 325 324 326 327 327 328 328 327 328 329 327 324 319 324 326 327 328 328 327 327 326 327 328 329 328 328 330 330 332 337 337
323 325 326 325 326 324 327 329 328 329 328 328 323 323 323 325 327 328 328 327 326 327 327 328 329 329 330 331 332 335 335 336
321 323 326 325 324 323 327 329 329 329 327 325 324 325 324 323 327 328 328 327 327 326 328 328 329 330 331 332 333 333 334 334
321 323 324 325 324 325 329 328 330 331 328 329 326 327 325 325 326 327 327 327 327 326 328 329 330 331 332 333 332 332 334 334
322 323 324 325 325 326 328 327 329 330 329 329 330 328 327 326 324 327 328 328 328 327 330 330 331 331 331 333 332 332 332 332
Wind_Speed
7 8 10 16 17 18 17 19 20 20 20 19 21 24 24 24 23 21 20 18 15 13 11 12 13 14 14 11 11 9 7 11
8 9 10 13 14 15 15 17 18 19 19 20 22 24 25 27 25 23 22 20 17 14 12 13 12 13 15 13 12 11 8 11
5 5 6 9 10 13 15 16 18 19 20 20 21 21 22 23 24 24 23 22 19 17 15 14 13 14 13 14 14 12 9 12
2 3 6 8 11 13 15 17 18 19 21 22 23 19 19 20 19 22 22 23 19 18 15 14 16 13 13 13 13 11 11 14
3 6 8 11 12 11 11 13 18 21 22 20 17 16 16 18 18 19 20 21 19 18 14 14 15 14 12 14 15 12 12 16
6 8 10 11 10 10 12 13 17 14 16 15 13 12 13 13 13 12 16 19 18 17 15 13 14 14 13 14 15 15 12 16
7 9 10 8 10 10 11 12 13 13 11 12 10 10 11 12 12 12 13 12 18 17 17 13 13 13 14 16 17 15 14 16
6 8 9 8 8 9 11 13 12 11 11 10 9 9 8 9 12 12 13 15 18 17 16 14 13 14 15 16 20 18 17 15
7 8 8 8 8 9 10 11 11 11 10 10 8 7 7 7 8 8 11 15 18 19 18 13 13 13 16 18 17 17 16 16
7 8 8 8 8 8 10 9 10 9 9 8 8 7 7 7 7 7 9 12 17 17 16 14 13 13 16 17 17 16 17 16
5 6 7 7 7 8 8 9 10 8 8 7 7 7 8 7 7 5 5 9 14 16 17 13 13 15 16 16 17 15 16 15
3 4 7 6 6 7 8 8 8 8 7 8 7 7 9 8 7 4 6 8 11 11 12 12 13 14 16 15 16 15 16 14
2 4 6 7 8 9 10 10 9 8 7 8 9 9 9 10 10 6 8 11 10 11 13 15 17 18 18 17 16 15 15 13
1 3 6 7 8 9 9 9 9 8 7 5 4 8 8 10 10 10 8 10 12 12 13 14 16 17 17 17 15 14 12 13
1 2 5 6 7 10 9 7 8 6 5 5 4 7 7 7 8 10 9 10 12 12 13 14 14 16 18 17 13 12 14 14
2 2 5 5 7 9 10 12 11 11 8 4 4 7 10 9 7 9 9 10 11 12 13 14 14 14 12 14 13 12 15 19
2 2 4 4 6 8 9 9 9 8 6 4 8 9 6 3 5 8 11 13 13 12 11 13 14 13 13 16 10 8 5 11
5 3 1 3 5 6 7 9 9 2 4 4 7 11 12 3 4 7 11 14 14 13 14 15 15 14 17 14 19 5 3 2
7 5 1 2 5 5 8 9 10 7 6 4 4 5 9 8 6 7 11 14 14 13 13 16 15 15 19 18 10 10 12 28
Wind_Direction
257 266 264 253 246 245 256 265 268 272 273 273 272 271 272 270 267 256 254 254 250 250 253 256 250 242 228 233 240 247 238 215
268 268 271 268 261 258 264 267 274 278 282 282 277 274 275 274 270 263 246 246 242 243 246 256 259 254 230 223 231 243 241 211
256 257 271 278 270 266 265 266 272 274 275 278 278 280 281 278 268 260 247 238 237 242 245 249 255 254 241 224 226 233 234 202
219 268 276 279 278 287 284 279 278 281 283 280 283 286 280 278 269 255 246 233 233 236 235 239 247 254 242 224 221 221 219 196
268 290 290 288 289 289 286 292 286 289 288 288 289 282 274 271 267 252 241 232 225 233 228 235 243 251 236 223 215 213 210 195
290 293 295 296 292 288 290 292 303 303 304 298 287 282 283 272 260 245 237 222 223 230 230 232 236 250 234 225 211 207 205 199
297 304 302 296 295 290 292 291 297 298 298 289 281 273 275 269 260 247 242 230 232 227 226 226 231 240 226 216 206 205 200 199
309 302 311 304 300 293 295 296 296 300 294 287 279 282 275 265 258 247 238 234 227 221 223 225 229 227 216 203 198 197 198 196
313 315 317 313 303 294 302 298 297 293 299 292 294 290 274 270 271 264 240 228 216 216 218 222 213 218 210 195 200 189 196 194
316 329 326 314 305 298 298 293 294 296 300 299 285 274 266 270 284 269 234 225 217 203 206 206 210 204 195 186 189 194 195 194
321 329 324 321 309 298 299 296 297 294 300 304 289 269 267 271 278 259 209 201 194 186 189 196 197 189 178 181 186 192 191 194
314 322 334 322 307 306 313 304 301 296 290 288 286 272 260 261 259 232 178 180 172 172 176 179 177 173 174 176 189 189 190 194
299 319 338 317 313 315 307 304 300 294 290 277 268 258 249 250 258 240 202 185 175 172 173 172 172 173 176 177 183 187 192 186
256 319 329 322 324 328 309 311 311 304 293 290 291 284 266 245 243 243 225 184 176 172 172 171 172 173 165 179 181 186 184 176
224 280 310 316 326 337 327 324 333 330 325 338 325 297 314 282 250 232 215 182 172 170 170 167 171 175 172 176 177 183 173 162
217 255 290 319 334 348 345 347 355 359 11 6 342 318 306 257 230 208 189 178 180 177 173 168 167 167 164 172 151 138 148 147
196 233 278 317 339 348 347 348 349 1 17 359 349 10 350 172 197 180 177 171 175 171 172 172 171 160 160 163 149 113 128 128
184 197 242 343 343 1 5 18 22 29 52 87 42 54 40 68 200 196 175 167 169 178 181 183 174 169 155 154 147 120 131 155
171 177 155 16 13 33 31 32 18 33 30 16 19 69 73 82 130 140 167 174 178 188 183 179 173 171 155 141 134 120 129 140